Location: Caltech
(34.1382°N, 118.1253°W)
Time: 20:42:18
(UTC-08:00)

KITSAT 1 - Visible Passes

Search period start: 02 March 2015 00:00
Search period end: 12 March 2015 01:00
Orbit: 1311 x 1320 km, 66.1° (Epoch: 01 March)

Date Brightness Start Highest point End Pass type
(mag) Time Alt. Az. Time Alt. Az. Time Alt. Az.
02 Mar 11.7 19:37:54 10° NW 19:45:06 35° WSW 19:52:07 10° S visible
03 Mar 12.3 19:54:57 10° WNW 20:00:57 22° WSW 20:06:34 10° SSW visible
04 Mar 10.4 18:14:05 10° NNW 18:22:13 83° WSW 18:30:20 10° SSE visible
04 Mar 12.8 20:13:15 10° WNW 20:16:45 13° WSW 20:19:33 10° WSW visible
05 Mar 11.0 18:30:20 10° NW 18:38:14 56° WSW 18:46:02 10° S visible
06 Mar 11.8 18:46:52 10° NW 18:54:08 36° WSW 19:01:13 10° S visible
07 Mar 12.6 19:03:52 10° NW 19:09:59 23° WSW 19:15:44 10° SSW visible
08 Mar 13.5 06:42:46 10° ESE 06:44:07 11° ESE 06:46:15 10° E visible
08 Mar 13.0 20:21:59 10° WNW 20:25:47 13° WSW 20:28:54 10° SW visible
11 Mar 12.8 19:12:47 10° NW 19:19:00 24° WSW 19:24:54 10° SSW visible
